CAPE
596 1274 2170 2155 1885 1886 1665 1818 1841 1741 1412 760 568 409 564 625 277 423 438 473 396 450 225 66 40 23 20 51 16 16 42 33 54 97 229 97 79 320 405 486 395 40 426
752 1377 2130 2173 2008 2093 2041 2130 1857 1728 1425 1106 585 685 733 813 636 571 637 679 432 260 107 39 28 5 0 5 0 7 1 12 17 20 10 55 237 392 382 372 572 387 370
956 1472 1815 2162 1955 2288 2188 2147 1788 1472 1369 1478 835 1155 852 561 660 1095 693 545 531 171 40 9 14 7 4 11 0 0 1 30 33 9 0 3 71 429 457 698 697 717 400
1085 1447 1634 2068 1999 2280 2144 1964 1779 1445 1417 1862 1393 1416 1341 973 688 1122 810 619 492 218 165 175 29 29 34 36 1 19 69 151 50 0 0 0 61 386 438 373 338 319 359
1223 1397 1591 1932 2000 2102 1922 1817 1667 1522 1519 1765 1606 1399 1224 1222 804 666 708 631 360 312 290 354 255 95 87 70 47 108 136 37 14 0 0 0 65 299 274 107 69 138 179
1309 1432 1666 1908 1995 1860 1786 1648 1568 1465 1611 1516 1533 1246 1097 1208 761 629 611 395 284 248 221 248 97 43 129 112 139 80 38 15 29 31 10 27 117 433 102 18 10 9 35
1360 1437 1658 1850 1887 1854 1681 1520 1518 1424 1538 1472 1486 1184 1209 876 720 568 546 420 288 191 177 200 35 46 88 64 44 34 11 4 3 0 4 96 192 278 81 40 15 18 16
1403 1513 1587 1620 1697 1533 1442 1409 1384 1338 1608 1587 1252 1164 1064 838 790 630 471 351 240 188 208 204 82 40 45 43 23 19 17 10 0 0 12 53 365 203 117 45 17 24 16
1428 1392 1535 1372 1246 1037 932 1002 1443 1480 1356 1410 1104 934 704 665 724 553 361 318 242 204 195 142 78 36 40 35 15 15 8 8 0 0 5 34 288 197 53 51 36 9 15
1393 1786 1760 1221 969 751 988 774 1120 944 797 818 693 352 332 353 383 390 217 225 218 216 153 96 59 26 16 18 15 11 0 0 0 0 12 27 172 133 68 66 46 26 12
1520 1919 1478 1115 769 781 935 918 826 685 514 312 186 176 234 231 222 182 84 110 110 137 124 88 50 22 13 2 0 0 0 0 5 19 28 69 71 104 78 57 36 27 23
1278 1938 1283 1074 761 661 688 666 516 480 328 161 87 102 80 112 103 84 70 50 89 63 69 61 15 0 0 0 0 0 0 0 11 23 28 77 74 76 80 63 64 41 39
1715 1548 1787 1086 649 506 391 395 286 269 182 44 39 16 1 43 76 36 19 8 30 41 17 7 0 0 0 0 0 0 0 0 1 4 11 48 78 59 66 69 66 64 52
1504 1895 1165 894 681 392 287 374 201 190 68 9 3 0 0 7 37 16 2 3 21 10 0 0 0 0 0 0 0 0 0 0 4 0 2 19 29 38 70 76 75 66 59
1229 1472 1737 944 697 379 466 392 216 114 38 11 0 0 0 0 0 11 0 6 14 4 0 0 0 0 0 0 0 4 9 6 5 12 9 16 20 17 18 44 61 62 71
1688 1264 1089 823 731 375 427 167 106 100 28 0 0 0 0 0 0 0 11 4 2 3 0 0 0 0 0 0 0 7 2 1 0 0 2 3 6 5 16 10 9 20 37
1594 1165 1614 900 751 347 239 82 97 65 1 0 0 0 0 0 0 0 1 2 1 2 0 0 0 0 0 0 0 0 0 0 0 0 0 3 6 17 31 15 12 13 12
1525 1545 1404 1193 692 287 119 10 2 0 0 0 0 0 0 0 0 0 0 0 0 0 0 0 0 0 0 0 0 0 0 0 0 0 0 8 0 0 0 1 22 10 5
1355 1251 1109 1120 629 222 200 25 0 0 0 0 0 0 0 0 0 0 0 0 0 0 0 0 0 0 0 0 0 0 0 0 0 0 0 0 0 0 0 0 0 10 10
1118 1306 887 960 644 362 190 33 0 0 0 0 0 0 0 0 0 0 0 0 0 0 0 0 0 0 0 0 0 0 0 0 0 0 0 0 0 0 0 0 0 0 0
890 642 683 711 444 237 204 18 0 0 0 0 0 0 0 0 0 0 0 0 0 0 0 0 0 0 0 0 0 0 0 0 0 0 0 0 0 0 0 0 0 0 0
569 535 469 467 219 320 185 111 0 0 1 0 0 0 0 0 0 0 0 0 0 0 0 0 0 0 0 0 0 0 0 0 0 0 0 0 0 0 0 0 0 0 0
399 335 338 410 390 521 252 195 1 2 0 1 3 3 0 0 0 0 0 0 0 0 0 0 0 0 0 0 0 0 0 0 0 0 0 0 0 0 0 0 0 0 0
233 254 348 371 385 351 284 203 5 0 0 0 0 0 0 0 0 0 0 0 0 0 0 0 0 0 0 0 0 0 0 0 0 0 0 0 0 0 0 0 0 0 0
334 390 376 347 337 293 199 140 31 0 0 0 7 0 0 0 0 0 0 0 0 0 0 0 0 0 0 0 0 0 0 0 0 0 0 0 0 0 0 0 0 0 0
241 288 259 260 325 282 165 65 18 0 0 0 2 0 0 0 0 0 0 0 0 0 0 0 0 0 0 0 0 0 0 0 0 0 0 0 0 0 0 0 0 0 0
CIN
-197 -45 0 0 0 0 0 0 0 0 0 -1 -14 -57 -42 -35 -112 -73 -83 -80 -105 -105 -176 -170 -117 -1 -1 -361 -4 0 -341 -106 -87 -225 -150 -177 -107 -106 -67 -60 -68 -193 -63
-226 -42 0 0 0 0 0 0 0 0 0 0 -10 -8 -19 -15 -29 -35 -34 -42 -98 -154 -263 0 0 0 0 0 0 0 0 -9 -5 -7 -6 -188 -138 -82 -77 -80 -61 -87 -76
-176 -42 0 0 0 0 0 0 0 0 0 0 0 0 -11 -37 -21 0 -24 -57 -61 -198 -319 0 0 0 0 0 0 0 0 -48 -1 -4 0 -1 -223 -73 -70 -43 -50 -50 -77
-138 -26 0 0 0 0 0 0 0 0 0 0 0 0 0 -7 -22 0 -11 -42 -61 -167 -213 -215 -141 0 0 0 0 -3 -205 -221 -299 0 0 0 -255 -86 -78 -80 -91 -104 -91
-109 -19 0 0 0 0 0 0 0 0 0 0 0 0 0 0 -8 -29 -21 -38 -101 -131 -147 -133 -188 -262 -329 -346 0 -274 -251 -35 -10 0 0 0 -255 -109 -118 -186 -66 -173 -147
-104 -32 0 0 0 0 0 0 0 0 0 0 0 0 0 0 -19 -43 -43 -96 -149 -169 -197 -176 -294 -4 -269 -276 -255 -314 -6 -6 -9 -2 -3 -9 -207 -80 -201 -3 0 0 -4
-122 -28 0 0 0 0 0 0 0 0 0 0 0 0 0 -8 -28 -60 -62 -103 -144 -192 -224 -218 -1 -4 -269 -85 -6 -14 -31 -12 -5 0 -1 -231 -141 -126 -225 -63 0 -3 0
-110 -27 0 0 0 0 0 0 0 0 0 0 0 0 -6 -18 -31 -55 -92 -139 -175 -194 -202 -236 -335 -7 -12 -15 -31 -57 -22 -23 0 0 -5 -239 -89 -145 -220 0 -1 0 0
-70 -41 0 0 0 -3 -6 0 0 0 0 0 0 -3 -31 -43 -44 -81 -131 -175 -177 -203 -227 -288 -364 -10 -15 -22 -45 -63 -70 -15 0 0 -11 -1 -119 -157 0 0 0 0 0
-53 0 0 0 -6 -5 0 -2 0 -1 -2 -1 -16 -78 -92 -96 -105 -117 -211 -247 -210 -227 -289 -349 -2 -10 -10 -15 -39 -44 0 0 0 0 -6 -2 -172 -176 -5 0 0 0 0
-28 -2 0 -2 -16 -5 0 0 0 -1 -13 -42 -98 -133 -138 -145 -171 -201 -317 -339 -311 -308 -343 -322 -6 -19 -26 -9 0 0 0 0 -6 -2 -3 -3 -1 -138 0 0 0 0 0
-59 -6 -5 -4 -15 -16 -2 -3 -5 -1 -21 -87 -177 -190 -240 -211 -237 -284 -349 -433 -374 -8 -4 -8 -22 0 0 0 0 0 0 0 -5 -7 -3 -2 -1 0 0 0 0 0 0
-49 -19 -1 -16 -22 -37 -55 -46 -46 -36 -61 -175 -227 -307 -70 -309 -300 -424 -28 -29 -17 -13 -18 -14 0 0 0 0 0 0 0 0 0 0 -21 -13 0 0 0 0 0 0 0
-55 -17 -30 -31 -35 -72 -83 -49 -102 -80 -147 -242 -314 0 0 -164 -380 -23 -29 -3 -37 -24 0 0 0 0 0 0 0 0 0 0 -41 0 -1 -25 -12 -2 0 0 0 0 0
-45 -16 0 -29 -42 -81 -41 -44 -84 -134 -164 -242 0 0 0 0 0 -11 0 -47 -43 -21 0 0 0 0 0 0 0 -11 -16 -24 -15 -14 -12 -30 -3 -4 -8 -2 -1 0 0
-7 -13 -22 -51 -42 -81 -54 -131 -168 -137 -169 0 0 0 0 0 0 0 -5 0 0 0 0 0 0 0 0 0 0 -4 0 0 0 0 -3 -16 -2 0 0 0 -1 -4 -2
-2 -22 0 -32 -41 -85 -100 -185 -168 -191 -14 0 0 0 0 0 0 0 0 0 0 0 0 0 0 0 0 0 0 0 0 0 0 0 0 -14 -1 -33 -3 0 0 0 -1
0 0 0 0 -35 -104 -163 -283 -284 0 0 0 0 0 0 0 0 0 0 0 0 0 0 0 0 0 0 0 0 0 0 0 0 0 0 -14 0 0 0 0 0 0 0
0 0 0 0 -17 -126 -87 -232 0 0 0 0 0 0 0 -1 0 0 0 0 0 0 0 0 0 0 0 0 0 0 0 0 0 0 0 0 0 0 0 0 0 -12 0
0 0 -6 0 -5 -50 -61 -145 0 0 0 0 0 -3 0 0 0 0 0 0 0 0 0 0 0 0 0 0 0 0 0 0 0 0 0 0 0 0 0 0 0 0 -1
0 -10 -12 -7 -6 -48 -32 -128 0 0 0 0 0 0 0 0 0 0 0 0 0 0 0 0 0 0 0 0 0 0 0 0 0 0 0 0 0 0 0 0 0 0 0
0 0 -3 -5 -34 -12 -32 -85 0 0 -250 -79 0 0 0 0 0 0 0 0 0 0 0 0 0 0 0 0 0 0 0 0 0 0 0 0 0 0 0 0 0 0 0
0 0 0 0 0 -17 -32 -32 -26 -1 0 -2 -2 -3 -1 0 0 0 0 0 0 0 0 0 0 0 0 0 0 0 0 0 0 0 0 0 0 0 0 0 0 0 0
0 0 0 0 -1 -4 -35 -23 -49 0 0 0 0 0 0 0 0 0 0 0 0 0 0 0 0 0 0 0 0 0 0 0 0 0 0 0 0 0 0 0 0 0 0
0 0 0 0 0 0 -2 -17 -109 0 0 0 -1 0 0 0 0 0 0 0 0 0 0 0 0 0 0 0 0 0 0 0 0 0 0 0 0 0 0 0 0 0 0
0 0 0 0 0 0 0 -12 -103 -28 0 0 -1 0 0 0 0 0 0 0 0 0 0 0 0 0 0 0 0 0 0 0 0 0 0 0 0 0 0 0 0 0 0
Wind_Speed
18 22 29 30 27 27 25 25 24 20 22 22 21 19 20 19 17 14 11 10 12 14 18 nan nan nan nan nan nan nan nan nan nan nan 0 nan nan 1 2 3 6 nan 6
27 21 28 29 27 28 25 24 22 20 20 20 20 19 19 17 15 14 14 13 13 15 19 nan nan nan nan nan nan nan nan nan nan nan nan nan 1 1 2 4 6 8 7
26 26 25 28 25 28 26 24 21 20 19 18 19 18 18 16 15 15 16 15 16 15 nan nan nan nan nan nan nan nan nan nan nan nan nan nan nan 2 5 5 5 6 8
25 19 21 27 24 27 26 23 21 20 16 17 18 16 16 16 15 16 15 17 16 15 20 26 nan nan nan nan nan nan nan 9 nan nan nan nan nan 3 8 8 9 8 8
18 24 19 26 23 24 24 23 21 20 15 19 18 16 16 17 17 17 18 17 16 17 22 22 22 nan nan nan nan 13 13 nan nan nan nan nan nan 4 11 8 nan 9 9
19 18 21 23 24 26 25 23 19 20 17 20 19 19 18 18 18 20 21 19 19 21 23 20 nan nan 19 18 16 nan nan nan nan nan nan nan 6 11 13 nan nan nan nan
21 20 21 23 23 23 25 23 22 21 19 22 24 21 19 20 20 21 20 19 22 22 23 21 nan nan nan nan nan nan nan nan nan nan nan nan 4 15 nan nan nan nan nan
23 21 22 23 22 23 23 25 23 23 20 24 19 23 21 21 20 19 18 19 21 23 22 20 nan nan nan nan nan nan nan nan nan nan nan nan 10 16 15 nan nan nan nan
23 24 24 23 21 21 21 21 21 24 25 24 20 24 24 21 20 19 16 17 20 19 19 17 nan nan nan nan nan nan nan nan nan nan nan nan 11 16 nan nan nan nan nan
23 22 22 24 24 21 18 20 22 24 25 28 25 28 26 22 19 17 15 16 19 17 16 nan nan nan nan nan nan nan nan nan nan nan nan nan 10 14 nan nan nan nan nan
21 26 24 23 19 22 22 21 25 25 26 32 31 31 30 25 21 18 nan 15 19 18 17 nan nan nan nan nan nan nan nan nan nan nan nan nan nan 15 nan nan nan nan nan
19 18 26 27 19 20 22 23 24 24 23 24 nan 30 nan 28 24 nan nan nan nan nan nan nan nan nan nan nan nan nan nan nan nan nan nan nan nan nan nan nan nan nan nan
20 24 20 22 24 18 16 22 21 23 23 nan nan nan nan nan nan nan nan nan nan nan nan nan nan nan nan nan nan nan nan nan nan nan nan nan nan nan nan nan nan nan nan
26 26 27 23 25 22 21 20 20 22 nan nan nan nan nan nan nan nan nan nan nan nan nan nan nan nan nan nan nan nan nan nan nan nan nan nan nan nan nan nan nan nan nan
36 34 29 29 27 23 24 22 19 21 nan nan nan nan nan nan nan nan nan nan nan nan nan nan nan nan nan nan nan nan nan nan nan nan nan nan nan nan nan nan nan nan nan
41 39 34 31 28 25 23 25 20 21 nan nan nan nan nan nan nan nan nan nan nan nan nan nan nan nan nan nan nan nan nan nan nan nan nan nan nan nan nan nan nan nan nan
44 43 37 34 33 28 27 nan nan nan nan nan nan nan nan nan nan nan nan nan nan nan nan nan nan nan nan nan nan nan nan nan nan nan nan nan nan nan nan nan nan nan nan
49 50 46 42 41 38 33 nan nan nan nan nan nan nan nan nan nan nan nan nan nan nan nan nan nan nan nan nan nan nan nan nan nan nan nan nan nan nan nan nan nan nan nan
48 52 52 47 45 43 40 nan nan nan nan nan nan nan nan nan nan nan nan nan nan nan nan nan nan nan nan nan nan nan nan nan nan nan nan nan nan nan nan nan nan nan nan
51 51 55 51 48 44 47 nan nan nan nan nan nan nan nan nan nan nan nan nan nan nan nan nan nan nan nan nan nan nan nan nan nan nan nan nan nan nan nan nan nan nan nan
56 55 52 51 51 48 49 nan nan nan nan nan nan nan nan nan nan nan nan nan nan nan nan nan nan nan nan nan nan nan nan nan nan nan nan nan nan nan nan nan nan nan nan
81 60 54 48 50 47 48 46 nan nan nan nan nan nan nan nan nan nan nan nan nan nan nan nan nan nan nan nan nan nan nan nan nan nan nan nan nan nan nan nan nan nan nan
83 83 81 57 48 46 46 49 nan nan nan nan nan nan nan nan nan nan nan nan nan nan nan nan nan nan nan nan nan nan nan nan nan nan nan nan nan nan nan nan nan nan nan
81 82 82 80 63 46 45 48 nan nan nan nan nan nan nan nan nan nan nan nan nan nan nan nan nan nan nan nan nan nan nan nan nan nan nan nan nan nan nan nan nan nan nan
82 83 82 82 79 62 47 46 nan nan nan nan nan nan nan nan nan nan nan nan nan nan nan nan nan nan nan nan nan nan nan nan nan nan nan nan nan nan nan nan nan nan nan
85 87 84 82 79 77 66 nan nan nan nan nan nan nan nan nan nan nan nan nan nan nan nan nan nan nan nan nan nan nan nan nan nan nan nan nan nan nan nan nan nan nan nan
Wind_Direction
280 276 272 270 270 265 263 261 264 266 270 273 273 268 269 267 263 259 248 245 254 248 228 nan nan nan nan nan nan nan nan nan nan nan 220 nan nan 210 113 38 43 nan 357
284 266 278 273 267 265 261 259 262 264 269 269 270 266 268 266 269 266 252 256 264 259 237 nan nan nan nan nan nan nan nan nan nan nan nan nan 47 261 315 345 11 18 350
305 259 259 272 267 263 262 256 261 261 265 270 271 266 271 268 261 261 253 247 244 255 nan nan nan nan nan nan nan nan nan nan nan nan nan nan nan 317 301 318 314 316 327
284 253 254 267 270 263 262 257 257 258 263 269 276 267 270 264 259 258 255 246 242 248 244 234 nan nan nan nan nan nan nan 232 nan nan nan nan nan 318 303 294 286 288 288
270 260 255 265 266 266 263 254 255 257 255 262 275 262 270 261 259 257 255 248 246 251 252 244 242 nan nan nan nan 255 236 nan nan nan nan nan nan 340 289 288 nan 286 288
250 239 258 264 265 262 261 258 256 255 252 261 263 260 263 260 261 259 252 249 248 250 251 246 nan nan 238 251 255 nan nan nan nan nan nan nan 78 309 293 nan nan nan nan
246 237 242 266 266 266 263 262 259 257 251 258 263 259 257 257 261 261 255 248 246 246 247 247 nan nan nan nan nan nan nan nan nan nan nan nan 36 296 nan nan nan nan nan
244 247 242 252 262 263 263 266 262 261 256 265 259 255 253 255 259 257 252 250 248 246 245 245 nan nan nan nan nan nan nan nan nan nan nan nan 317 305 302 nan nan nan nan
242 244 237 232 242 253 257 262 260 261 255 257 253 249 245 245 253 253 248 249 249 250 247 243 nan nan nan nan nan nan nan nan nan nan nan nan 301 301 nan nan nan nan nan
239 227 233 229 234 235 237 261 254 256 255 250 246 241 231 230 242 243 237 242 247 244 242 nan nan nan nan nan nan nan nan nan nan nan nan nan 273 299 nan nan nan nan nan
230 226 226 232 227 232 232 237 244 249 249 245 235 234 223 210 215 216 nan 229 245 250 247 nan nan nan nan nan nan nan nan nan nan nan nan nan nan 284 nan nan nan nan nan
237 231 226 232 230 235 230 241 236 236 231 234 nan 220 nan 213 208 nan nan nan nan nan nan nan nan nan nan nan nan nan nan nan nan nan nan nan nan nan nan nan nan nan nan
234 227 233 240 234 235 239 233 227 225 219 nan nan nan nan nan nan nan nan nan nan nan nan nan nan nan nan nan nan nan nan nan nan nan nan nan nan nan nan nan nan nan nan
231 235 235 232 237 234 230 227 228 227 nan nan nan nan nan nan nan nan nan nan nan nan nan nan nan nan nan nan nan nan nan nan nan nan nan nan nan nan nan nan nan nan nan
232 230 232 228 234 234 237 235 227 229 nan nan nan nan nan nan nan nan nan nan nan nan nan nan nan nan nan nan nan nan nan nan nan nan nan nan nan nan nan nan nan nan nan
229 233 228 232 231 232 234 235 229 232 nan nan nan nan nan nan nan nan nan nan nan nan nan nan nan nan nan nan nan nan nan nan nan nan nan nan nan nan nan nan nan nan nan
226 235 230 235 238 236 235 nan nan nan nan nan nan nan nan nan nan nan nan nan nan nan nan nan nan nan nan nan nan nan nan nan nan nan nan nan nan nan nan nan nan nan nan
219 227 231 228 242 242 235 nan nan nan nan nan nan nan nan nan nan nan nan nan nan nan nan nan nan nan nan nan nan nan nan nan nan nan nan nan nan nan nan nan nan nan nan
218 224 226 232 239 240 236 nan nan nan nan nan nan nan nan nan nan nan nan nan nan nan nan nan nan nan nan nan nan nan nan nan nan nan nan nan nan nan nan nan nan nan nan
217 219 226 227 239 239 233 nan nan nan nan nan nan nan nan nan nan nan nan nan nan nan nan nan nan nan nan nan nan nan nan nan nan nan nan nan nan nan nan nan nan nan nan
214 213 222 229 235 235 235 nan nan nan nan nan nan nan nan nan nan nan nan nan nan nan nan nan nan nan nan nan nan nan nan nan nan nan nan nan nan nan nan nan nan nan nan
203 210 214 221 234 234 235 231 nan nan nan nan nan nan nan nan nan nan nan nan nan nan nan nan nan nan nan nan nan nan nan nan nan nan nan nan nan nan nan nan nan nan nan
204 203 201 205 226 233 236 228 nan nan nan nan nan nan nan nan nan nan nan nan nan nan nan nan nan nan nan nan nan nan nan nan nan nan nan nan nan nan nan nan nan nan nan
202 201 201 202 205 221 230 231 nan nan nan nan nan nan nan nan nan nan nan nan nan nan nan nan nan nan nan nan nan nan nan nan nan nan nan nan nan nan nan nan nan nan nan
202 201 199 201 204 203 222 225 nan nan nan nan nan nan nan nan nan nan nan nan nan nan nan nan nan nan nan nan nan nan nan nan nan nan nan nan nan nan nan nan nan nan nan
202 201 201 200 203 207 202 nan nan nan nan nan nan nan nan nan nan nan nan nan nan nan nan nan nan nan nan nan nan nan nan nan nan nan nan nan nan nan nan nan nan nan nan